Location: K�rdu
(58.2847°N, 22.5806°E)
Time: 04:03:53
(UTC+00:00)

Daily predictions for brighter satellites

Satellite Brightness Start Highest point End
(mag) Time Altitude Azimuth Time Altitude Azimuth Time Altitude Azimuth
Cosmos 2369 Rocket 4.3 01:37:12 21° NNE 01:37:12 21° NNE 01:39:20 10° NE
NOSS 3-1 (C) 4.3 02:01:35 51° NE 02:01:35 51° NE 02:07:17 10° ENE
Cosmos 2278 Rocket 4.0 02:02:00 24° NNE 02:02:00 24° NNE 02:06:12 10° ENE
IDEFIX/ARIANE 42P 4.3 02:02:12 10° NNE 02:04:49 29° NNE 02:04:49 29° NNE
Cosmos 2263 Rocket 4.2 02:16:07 19° SE 02:16:07 19° SE 02:17:36 10° SE
ATLAS 3B R/B 3.3 02:22:24 46° SE 02:22:24 46° SE 02:27:03 10° SE
Cosmos 1844 Rocket 3.8 02:22:26 38° NNE 02:22:38 38° NNE 02:27:53 10° ESE
Cosmos 2344 4.2 02:21:09 42° SSE 02:22:52 48° SE 02:30:57 10° NE
Resurs 1-4 Rocket 4.5 02:25:22 10° N 02:26:08 13° N 02:26:08 13° N
USA 229 DEB 3.9 02:35:39 60° N 02:35:39 60° N 02:42:45 10° ENE
USA 229 3.9 02:35:45 60° N 02:35:45 60° N 02:42:49 10° ENE
Cosmos 1943 Rocket 3.9 02:37:34 23° N 02:37:34 23° N 02:41:18 10° NE
CENTAUR R/B 3.3 02:39:31 55° S 02:39:31 55° S 02:46:32 10° SSE
Cosmos 2056 Rocket 4.2 02:40:33 55° E 02:40:33 55° E 02:45:17 10° SE
NOSS 3-1 (A) 3.8 02:41:59 63° N 02:41:59 63° N 02:49:04 10° ENE
ADEOS 4.2 02:38:12 10° NNE 02:42:21 53° NE 02:42:21 53° NE
Lacrosse 5 rocket 3.1 02:46:56 33° E 02:46:56 33° E 02:49:26 10° E
GEOS 3 Rocket 4.2 02:41:50 10° NE 02:45:56 53° NNE 02:45:56 53° NNE
USA 215 3.3 02:40:59 10° ESE 02:47:03 66° S 02:47:03 66° S
Cosmos 2278 3.9 02:50:59 64° ESE 02:51:01 64° ESE 02:56:41 10° NE
MSX 3.9 02:45:18 10° NNE 02:50:42 76° NE 02:50:42 76° NE
Cosmos 962 Rocket 4.5 02:45:05 10° NNW 02:51:25 81° ENE 02:57:47 10° SSE
Lacrosse 4 Rocket 3.6 02:54:21 20° NNE 02:54:21 20° NNE 02:56:36 10° NE
ADEOS II 4.0 02:56:01 10° N 02:57:37 18° N 02:57:37 18° N
SL-16 R/B 4.2 02:56:04 10° SSE 03:00:36 25° ESE 03:05:09 10° NE
CZ-4B R/B 4.2 02:57:58 10° NNE 03:02:04 39° E 03:02:24 39° ESE
Cosmos 2369 3.7 03:02:37 83° NE 03:02:37 83° NE 03:08:08 10° NE
Cosmos 1980 Rocket 2.5 03:07:20 54° SSE 03:08:20 65° ESE 03:13:57 10° NE
Cosmos 1538 Rocket 4.1 03:08:34 75° ESE 03:08:38 75° ESE 03:13:54 10° NNE
Cosmos 1953 4.0 03:11:09 28° NNE 03:11:09 28° NNE 03:13:12 10° NNE
Cosmos 1844 4.3 03:08:09 39° N 03:09:51 52° NE 03:15:17 10° ESE
Cosmos 1867 3.9 03:09:20 56° N 03:09:53 58° NNE 03:15:17 10° ESE
NOSS 2-3 (C) 4.5 03:10:33 56° NNW 03:10:35 56° N 03:16:59 10° ENE
Cosmos 1697 Rocket 2.5 03:13:32 82° NNW 03:13:32 82° NNW 03:19:06 10° NE
USA 32 4.0 03:11:53 10° N 03:17:11 79° E 03:22:26 10° SSE
ATLAS 2AS CENTAUR R/B 3.7 03:13:15 18° SSW 03:19:04 51° SE 03:26:38 10° NE
SL-8 Rocket 3.9 03:13:03 10° NNW 03:19:19 85° E 03:25:30 10° SSE
Cosmos 2369 Rocket 3.7 03:18:58 22° NNW 03:19:47 23° N 03:24:16 10° NE
Cosmos 1452 Rocket 4.2 03:19:41 30° N 03:22:04 52° NE 03:27:11 10° SE
COSMOS 2455 3.0 03:27:17 40° SSW 03:29:28 70° SE 03:35:29 10° NE
CZ-2C R/B 2.3 03:27:13 10° NNE 03:32:16 77° WNW 03:32:36 73° WSW
Nadezhda 1 Rocket 3.8 03:31:43 56° WSW 03:32:48 66° WNW 03:38:55 10° N
Cosmos 1908 4.4 03:30:19 10° SSE 03:34:01 42° E 03:37:44 10° NNE
ALOS 3.3 03:31:56 10° NNE 03:36:28 46° E 03:40:57 10° S
Cosmos 2181 Rocket 4.3 03:30:26 10° S 03:36:38 68° E 03:43:00 10° NNE
ARIANE 5 R/B 4.4 03:32:58 10° N 03:34:34 16° NNW 03:34:34 16° NNW
Meteor 2-10 4.3 03:32:52 10° S 03:38:14 69° E 03:43:25 10° NNE
Cosmos 1371 Rocket 4.1 03:39:17 57° SW 03:39:17 57° SW 03:44:02 10° S
Cosmos 1680 Rocket 4.2 03:34:01 10° S 03:39:08 54° ESE 03:44:20 10° NE
NOSS 2-2 (D) 3.4 03:40:25 81° SE 03:40:25 81° SE 03:45:06 10° ENE
Cosmos 371 Rocket 4.5 03:37:35 21° NNW 03:40:27 40° NE 03:45:01 10° ESE
Cosmos 2341 Rocket 3.9 03:34:26 10° NNW 03:40:35 59° W 03:46:41 10° S
Cosmos 1656 4.0 03:41:00 45° NW 03:41:01 45° NW 03:46:21 10° NE
STARLINK-48 4.4 03:46:12 37° SSE 03:46:12 37° SSE 03:49:33 10° ESE
IDEFIX/ARIANE 42P 3.5 03:42:06 10° N 03:45:39 31° NNW 03:45:39 31° NNW
Cosmos 2278 Rocket 3.3 03:43:50 20° NNW 03:47:15 40° NE 03:52:35 10° ESE
Cosmos 1420 Rocket 4.0 03:45:22 33° NNW 03:47:49 87° ENE 03:53:09 10° SSE
Cosmos 1484 Rocket 2.7 03:45:31 10° NNE 03:49:16 78° ESE 03:49:41 67° SSE
NOSS 3-1 (C) 4.1 03:48:58 36° NW 03:51:46 59° N 03:59:26 10° E
Okean O Rocket 3.3 03:48:09 10° NNE 03:52:17 35° E 03:56:22 10° SSE
Cosmos 773 Rocket 4.1 03:52:23 50° WNW 03:52:43 51° NW 03:57:52 10° NNE
Meteor 1-11 4.1 03:49:30 10° NNW 03:55:06 71° W 04:00:43 10° S
Cosmos 2263 Rocket 3.6 03:57:53 22° SSW 03:57:53 22° SSW 04:00:19 10° SSW
Cosmos 864 Rocket 4.4 03:49:26 10° NNW 03:55:39 75° W 04:01:54 10° S
Cosmos 2112 Rocket 4.4 03:52:35 10° SSW 03:57:53 64° ESE 04:03:11 10° NE
H-2A R/B 2.7 03:54:23 10° NNE 03:57:28 49° NNW 03:57:28 49° NNW
Cosmos 1076 Rocket 4.4 03:55:42 10° N 04:00:00 51° ENE 04:04:16 10° SSE
Cosmos 2322 Rocket 3.1 03:55:43 10° S 04:01:10 50° ESE 04:06:41 10° NE
Cosmos 2058 Rocket 3.2 03:57:21 10° S 04:01:43 72° E 04:06:05 10° NNE
Cosmos 1726 2.7 04:04:51 41° N 04:04:51 41° N 04:07:26 10° N
Cosmos 2218 Rocket 4.0 03:57:28 10° NNW 04:03:48 63° W 04:10:02 10° S
Meteor PRIRODA 3.5 04:00:08 10° NNE 04:03:54 78° WNW 04:04:25 63° SW
DMSP B5D1-3 4.4 04:00:16 10° SSE 04:05:23 82° WSW 04:10:31 10° NNW
Cosmos 1624 Rocket 4.2 04:05:47 43° W 04:06:00 43° WSW 04:10:54 10° S
Cosmos 1844 Rocket 2.6 04:04:07 30° NW 04:07:00 76° WSW 04:12:39 10° SSE
Cosmos 1726 Rocket 3.4 04:03:22 15° SSW 04:07:01 75° WNW 04:11:26 10° N
Cosmos 1606 Rocket 3.5 04:05:52 39° SW 04:07:21 63° WNW 04:11:44 10° N
SL-08 R/B 4.5 04:01:53 10° NNW 04:08:24 80° W 04:14:50 10° S
Meteor 1-31 Rocket 3.5 04:05:25 10° N 04:08:03 36° NNW 04:08:03 36° NNW
PAYLOAD A 4.4 04:05:23 10° N 04:09:20 37° NW 04:09:20 37° NW
ATLAS 3B R/B 3.4 04:09:41 30° WSW 04:10:13 31° WSW 04:16:03 10° S
Cosmos 2228 2.9 04:08:47 28° SSW 04:10:59 64° WNW 04:15:21 10° N
Meteor 2-12 Rocket 4.3 04:06:56 10° NNW 04:13:03 82° W 04:19:11 10° S
Cosmos 1959 Rocket 4.5 04:07:51 10° NNW 04:13:48 56° W 04:19:47 10° S
COSMO-SKYMED 1 4.0 04:10:04 10° SSW 04:11:56 22° SSW 04:11:56 22° SSW
Cosmos 1437 2.5 04:14:10 85° ESE 04:14:10 85° ESE 04:17:09 10° SSE
NOSS 2-2 (C) 3.5 04:18:10 46° W 04:19:17 70° NNW 04:24:13 10° ENE
ADEOS Rocket 2.8 04:13:52 10° SSE 04:19:29 88° W 04:25:35 10° NNW
Cosmos 2056 Rocket 4.1 04:20:56 34° W 04:21:54 36° WSW 04:26:50 10° S
Cosmos 1943 Rocket 3.8 04:19:05 15° NNW 04:22:23 25° NNE 04:26:55 10° ENE
ADEOS 4.3 04:18:07 10° N 04:22:41 31° NW 04:23:10 31° WNW
Lacrosse 5 rocket 1.8 04:22:34 38° WSW 04:23:59 54° SSW 04:28:19 10° SE
GEOS 3 Rocket 4.2 04:19:49 10° ENE 04:24:43 43° N 04:27:02 28° WNW
Cosmos 1934 Rocket 4.4 04:19:33 10° N 04:25:39 63° ENE 04:31:46 10° SSE
Lacrosse 5 3.3 04:21:52 10° SSW 04:26:29 35° SE 04:31:05 10° E
FENGYUN 3A 3.6 04:21:51 10° NNE 04:27:19 85° WNW 04:32:44 10° SSW
USA 229 DEB 4.0 04:23:05 25° WNW 04:27:26 64° NNE 04:34:45 10° E
USA 229 4.0 04:23:11 25° WNW 04:27:31 64° NNE 04:34:50 10° E
CENTAUR R/B 4.0 04:26:44 23° W 04:27:50 24° WSW 04:34:14 10° SSW
Cosmos 2360 4.5 04:25:27 30° W 04:28:01 49° NW 04:33:36 10° NE
NOSS 2-2 (E) 3.7 04:26:52 38° W 04:28:19 61° NNW 04:33:27 10° ENE
SJ-12 3.8 04:25:41 10° NNE 04:29:44 66° WNW 04:33:47 10° SSW
USA 215 3.9 04:25:20 10° SSE 04:31:16 36° SW 04:34:24 24° W
Cosmos 2366 rocket 4.2 04:25:18 10° NNW 04:31:20 46° W 04:37:20 10° SSW
Lacrosse 4 Rocket 3.0 04:30:40 18° NNW 04:32:58 28° NNE 04:36:48 10° E
NOSS 3-1 (A) 4.1 04:29:24 24° WNW 04:33:35 61° NNE 04:41:20 10° E
Cosmos 923 Rocket 4.0 04:29:48 15° SW 04:34:07 61° NW 04:39:27 10° NNE
NOSS 3-4 (A) 3.7 04:28:29 10° SW 04:34:34 75° SE 04:41:12 10° ENE
NOSS 3-4 (C) 3.7 04:28:35 10° SW 04:34:40 75° SE 04:41:19 10° ENE
Cosmos 2278 4.1 04:32:54 27° W 04:35:30 43° NW 04:40:58 10° NE
Cosmos 2058 2.9 04:31:39 10° NNW 04:35:53 87° ENE 04:40:07 10° SSE
Cosmos 2344 3.7 04:31:10 20° WSW 04:36:53 77° NNW 04:46:22 10° ENE
CZ-4B R/B 3.5 04:33:09 10° N 04:37:10 37° WNW 04:38:32 29° W
PSLV R/B 3.8 04:34:05 10° N 04:37:48 50° WNW 04:41:25 10° SW
ADEOS II 4.2 04:37:58 10° NNW 04:38:33 10° NNW 04:38:33 10° NNW
STARLINK-26 4.3 04:38:11 25° SW 04:39:27 33° S 04:42:37 10° ESE
USA 116 4.4 04:36:33 10° SSW 04:40:19 31° W 04:40:37 31° W
CZ-2C R/B 4.1 04:36:54 10° ESE 04:41:47 37° ENE 04:46:48 10° N
STARLINK-61 4.5 04:40:00 23° SW 04:41:58 39° S 04:45:40 10° ESE
SL-16 R/B 2.2 04:38:25 10° SW 04:44:07 88° NW 04:49:51 10° NE
Cosmos 2360 Rocket 2.9 04:40:25 10° SSW 04:45:57 56° ESE 04:51:29 10° NE
Cosmos 1953 3.8 04:46:52 20° NW 04:46:52 20° NW 04:49:12 10° N
Cosmos 1766 Rocket 4.4 04:42:15 10° N 04:46:32 51° ENE 04:50:46 10° SSE
Cosmos 2369 4.5 04:44:34 24° WNW 04:47:13 35° NNW 04:52:28 10° NE
H-2A R/B 3.4 04:45:23 10° NNE 04:49:16 59° E 04:53:07 10° S
Cosmos 2219 Rocket 4.5 04:44:53 10° SSE 04:49:36 28° ESE 04:54:21 10° NE
CZ-4B R/B 3.2 04:44:17 10° NNE 04:49:54 86° ESE 04:55:22 10° SSW
Cosmos 158 Rocket 3.8 04:45:19 10° SW 04:50:14 77° WNW 04:55:18 10° NNE
Cosmos 1300 2.7 04:47:18 10° S 04:51:08 88° E 04:55:00 10° NNE
STARLINK-42 4.4 04:49:24 19° SW 04:51:34 36° S 04:55:00 10° ESE
Helios 1A Rocket 3.0 04:47:29 10° NNE 04:51:40 81° ESE 04:55:49 10° SSW
BREEZE-M DEB (TANK) 4.2 04:43:48 11° WSW 04:51:57 43° S 04:55:50 10° ESE
Cosmos 1980 Rocket 2.6 04:49:08 20° W 04:52:41 43° NW 04:58:04 10° NE
Cosmos 1867 3.7 04:50:00 21° WNW 04:53:35 57° SW 04:58:54 10° SSE
Cosmos 1844 3.9 04:50:02 17° NW 04:54:02 48° WSW 04:59:21 10° S
SJ-7 4.4 04:50:32 10° NNE 04:54:43 85° WNW 04:58:56 10° SSW
Cosmos 1697 Rocket 3.5 04:55:16 20° WNW 04:58:10 32° NNW 05:03:13 10° NE
SAR-Lupe-2 4.4 04:55:39 10° SE 04:59:08 52° ENE 05:02:39 10° N
GENESIS II 4.3 04:57:10 22° WNW 04:59:42 69° SW 05:03:43 10° SE
Iridium 96 3.5 04:57:56 10° S 05:00:18 75° E 05:02:37 10° N
Envisat 4.3 04:55:24 10° NNE 05:00:19 45° E 05:05:11 10° S
Cosmos 1455 4.2 05:00:27 10° SSE 05:03:57 33° E 05:07:27 10° NNE
Cosmos 1452 Rocket 4.0 05:00:01 14° NW 05:04:07 40° WSW 05:08:59 10° S
CZ-4 R/B 4.0 05:00:55 10° NE 05:04:28 25° E 05:07:58 10° SSE
Cosmos 2369 Rocket 3.6 05:00:45 10° NW 05:05:35 29° NNE 05:10:32 10° E
Cosmos 1110 Rocket 4.0 05:00:32 10° NNW 05:05:51 79° WSW 05:11:11 10° SSE
Cosmos 1812 Rocket 3.5 05:03:58 10° SSW 05:08:23 85° WNW 05:12:52 10° NNE
STARLINK-64 4.5 05:06:51 14° WSW 05:09:44 37° S 05:13:13 10° ESE
CZ-2C R/B 3.7 05:06:11 10° N 05:09:52 21° NW 05:12:00 16° W
ATLAS 2AS CENTAUR R/B 3.1 05:01:51 10° WSW 05:09:57 80° NNW 05:17:48 10° ENE
Cosmos 1908 4.1 05:06:35 10° SW 05:10:00 28° WNW 05:13:27 10° N
In-Cosmos 22 Rocket 4.2 05:07:48 10° NNW 05:13:03 54° W 05:18:11 10° S
ALOS 2.8 05:09:33 10° N 05:13:51 37° WNW 05:18:08 10° SW
CZ-2C R/B 3.6 05:10:42 10° S 05:15:13 70° WSW 05:19:42 10° NNW
METEOR-M 4.4 05:10:11 10° N 05:15:15 44° WNW 05:20:18 10° SW
COSMOS 2455 3.1 05:10:28 13° W 05:15:45 50° NNW 05:21:38 10° NE
PAYLOAD B 4.4 05:12:43 10° NNE 05:18:11 54° WNW 05:23:38 10° SW
COSMOS 2428 4.3 05:13:47 10° S 05:19:02 40° ESE 05:24:21 10° NE
STARLINK-33 4.5 05:16:59 12° WSW 05:19:57 34° S 05:23:12 10° ESE
Cosmos 1892 2.8 05:16:31 10° NNW 05:20:16 51° W 05:23:58 10° S
Cosmos 332 Rocket 3.8 05:15:50 10° NW 05:20:35 60° WSW 05:25:19 10° SSE
Cosmos 371 Rocket 3.5 05:16:19 10° NW 05:21:02 50° WSW 05:25:42 10° S
Cosmos 1680 Rocket 4.0 05:16:26 10° WSW 05:21:29 41° NW 05:26:32 10° NNE
STARLINK-66 4.5 05:18:34 11° WSW 05:21:35 34° S 05:24:50 10° ESE
STARLINK-55 4.5 05:20:12 11° WSW 05:23:16 34° S 05:26:31 10° ESE
Cosmos 1484 Rocket 4.2 05:20:42 10° NNW 05:23:17 18° NW 05:25:03 14° W
STARLINK-28 4.5 05:21:55 11° WSW 05:25:01 33° S 05:28:15 10° ESE
IDEFIX/ARIANE 42P 4.4 05:23:13 10° NNW 05:25:08 12° NW 05:26:27 11° NW
RESURS DK-1 2.3 05:21:33 10° SW 05:25:43 72° NW 05:29:54 10° NE
NOAA 6 4.2 05:21:12 10° NNE 05:26:14 52° WNW 05:31:16 10° SW
Okean O Rocket 1.9 05:24:30 10° N 05:28:46 44° WNW 05:32:58 10° SW
NOSS 2-2 (D) 4.1 05:27:47 13° W 05:31:21 48° N 05:36:34 10° ENE
Cosmos 2278 Rocket 2.2 05:26:06 10° NW 05:31:46 71° WSW 05:37:23 10° SSE
Okean 3 Rocket 3.7 05:28:11 10° NNW 05:32:41 60° W 05:37:09 10° S
H-2A R/B 4.1 05:31:11 10° NNW 05:33:05 13° NW 05:34:03 12° WNW
AQUARIUS 4.1 05:29:17 10° NNE 05:33:48 79° WNW 05:38:18 10° SSW
Cosmos 1825 2.1 05:32:34 10° NNW 05:36:22 79° W 05:40:08 10° S
Cosmos 1500 Rocket 4.5 05:32:50 10° N 05:37:14 52° ENE 05:41:37 10° SSE
Cosmos 1076 Rocket 4.5 05:33:34 10° NNW 05:37:17 28° W 05:41:00 10° SW
Okean-O 3.1 05:33:46 10° NNE 05:38:14 69° ESE 05:42:39 10° S
Cosmos 1821 Rocket 4.5 05:32:43 10° NNW 05:38:18 37° W 05:43:49 10° SSW
STARLINK 1040 4.4 05:36:57 10° WSW 05:39:26 27° S 05:41:56 10° ESE
Cosmos 1726 4.0 05:39:23 11° WNW 05:39:48 11° NW 05:41:06 10° NNW
Cosmos 2058 Rocket 4.2 05:36:47 10° WSW 05:40:13 22° WNW 05:43:39 10° N
Cosmos 1743 Rocket 4.2 05:36:24 10° N 05:40:47 59° ENE 05:45:05 10° SSE
NOSS 3-1 (C) 4.0 05:36:21 10° WNW 05:43:17 89° NNE 05:51:31 10° SE
Elektron 3 3.8 05:39:43 10° WSW 05:43:23 79° NNW 05:46:14 10° ENE
Cosmos 2322 Rocket 2.4 05:39:45 10° WSW 05:45:19 51° NW 05:50:55 10° NE
Cosmos 1408 2.9 05:42:14 10° NNW 05:45:51 48° W 05:49:26 10° S
IRS-1C Rocket 4.1 05:42:07 10° NNE 05:47:25 77° WNW 05:52:41 10° SSW
Meteor 2-1 Rocket 4.2 05:42:05 10° SSW 05:47:41 71° WNW 05:53:13 10° NNE
Cosmos 1331 Rocket 4.4 05:42:38 10° NW 05:47:44 47° WSW 05:52:47 10° S
Cosmos 2297 4.0 05:43:03 10° NW 05:48:43 69° NE 05:54:21 10° SE
NOAA 12 4.1 05:44:12 10° NNE 05:49:32 87° WNW 05:54:52 10° SSW
Cosmos 1605 Rocket 4.1 05:43:30 10° NNW 05:49:49 63° W 05:56:04 10° S
Cosmos 1844 Rocket 4.1 05:46:10 10° WNW 05:50:05 20° W 05:53:59 10° SW
Cosmos 2237 Rocket 4.4 05:45:21 10° SSE 05:50:13 30° ESE 05:55:05 10° NE
Nadezhda 3 Rocket 4.2 05:44:22 10° SW 05:50:22 51° WNW 05:56:28 10° N
Geosat 4.3 05:46:17 10° SE 05:51:16 67° NE 05:56:18 10° NW
Cosmos 1302 Rocket 4.1 05:48:38 10° NNW 05:53:50 67° WSW 05:58:59 10° SSE
Cosmos 2151 3.5 05:49:59 10° NNW 05:54:01 40° W 05:58:01 10° SSW
Cosmos 1459 Rocket 4.3 05:48:42 10° N 05:54:46 71° ENE 06:00:50 10° SSE
Cosmos 1633 4.3 05:51:37 10° N 05:54:53 32° ENE 05:58:09 10° SE
YAOGAN 1 3.5 05:53:54 10° NNE 05:58:10 53° E 06:02:25 10° S
Cosmos 1939 Rocket 4.2 05:54:46 10° NNE 05:58:47 47° E 06:02:48 10° S
Cosmos 1727 Rocket 4.4 05:55:32 10° S 06:01:46 72° E 06:07:59 10° NNE
GEOS 3 Rocket 4.2 05:57:17 10° E 06:02:15 48° NNE 06:07:17 10° WNW
Lacrosse 5 rocket 3.2 05:59:06 10° W 06:02:32 21° SW 06:05:51 10° S
Cosmos 1340 Rocket 3.4 06:00:33 10° SW 06:04:09 35° WNW 06:07:48 10° N
ADEOS Rocket 4.0 06:01:48 10° SW 06:06:03 22° W 06:10:32 10° NW
Cosmos 2016 Rocket 4.5 06:00:54 10° N 06:06:59 64° ENE 06:13:05 10° SSE
Cosmos 2333 Rocket 2.6 06:01:19 10° SSW 06:07:05 76° SE 06:12:52 10° NE
Cosmos 1943 Rocket 2.9 06:02:00 10° NW 06:07:26 49° NE 06:12:47 10° ESE
